Time,TemperatureF,DewpointF,PressureIn,WindDirection,WindDirectionDegrees,WindSpeedMPH,WindSpeedGustMPH,Humidity,HourlyPrecipIn,Conditions,Clouds,dailyrainin,SoftwareType,DateUTC
2013-10-31 00:01:00,59.0,35.3,30.12,ENE,58,0.0,0.0,41,0.00,,---,0.04,VWS V14.01,2013-10-31 04:01:00,
2013-10-31 00:02:00,59.0,35.3,30.12,ENE,58,0.0,0.0,41,0.00,,---,0.00,VWS V14.01,2013-10-31 04:02:00,
2013-10-31 00:07:00,59.0,35.3,30.09,ENE,58,0.0,0.0,41,0.00,,---,0.00,VWS V14.01,2013-10-31 04:07:00,
2013-10-31 00:12:00,58.8,35.2,30.09,ENE,58,0.0,0.0,41,0.00,,---,0.00,VWS V14.01,2013-10-31 04:12:00,
2013-10-31 00:18:00,58.8,35.8,30.09,ENE,58,0.0,0.0,42,0.00,,---,0.00,VWS V14.01,2013-10-31 04:18:00,
2013-10-31 00:23:00,58.5,34.9,30.09,ENE,58,0.0,0.0,41,0.00,,---,0.00,VWS V14.01,2013-10-31 04:23:00,
2013-10-31 00:28:00,58.3,34.7,30.09,ENE,58,0.0,0.0,41,0.00,,---,0.00,VWS V14.01,2013-10-31 04:28:00,
2013-10-31 00:33:00,58.3,35.3,30.09,ENE,58,0.0,0.0,42,0.00,,---,0.00,VWS V14.01,2013-10-31 04:33:00,
2013-10-31 00:38:00,58.5,35.5,30.09,ENE,58,0.0,0.0,42,0.00,,---,0.00,VWS V14.01,2013-10-31 04:38:00,
2013-10-31 00:43:00,58.3,35.3,30.09,ENE,58,0.0,0.0,42,0.00,,---,0.00,VWS V14.01,2013-10-31 04:43:00,
2013-10-31 00:48:00,58.3,35.3,30.09,ENE,58,0.0,0.0,42,0.00,,---,0.00,VWS V14.01,2013-10-31 04:48:00,
2013-10-31 00:53:00,58.3,35.3,30.09,ENE,58,0.0,0.0,42,0.00,,---,0.00,VWS V14.01,2013-10-31 04:53:00,
2013-10-31 00:58:00,58.1,35.7,30.09,ENE,58,0.0,0.0,43,0.00,,---,0.00,VWS V14.01,2013-10-31 04:58:00,
2013-10-31 01:03:00,58.1,35.2,30.09,ENE,58,0.0,0.0,42,0.00,,---,0.00,VWS V14.01,2013-10-31 05:03:00,
2013-10-31 01:08:00,58.1,35.7,30.09,ENE,58,0.0,0.0,43,0.00,,---,0.00,VWS V14.01,2013-10-31 05:08:00,
2013-10-31 01:13:00,57.9,35.6,30.09,ENE,58,0.0,0.0,43,0.00,,---,0.00,VWS V14.01,2013-10-31 05:13:00,
2013-10-31 01:18:00,57.9,35.6,30.09,ENE,58,0.0,0.0,43,0.00,,---,0.00,VWS V14.01,2013-10-31 05:18:00,
2013-10-31 01:24:00,57.7,35.4,30.09,ENE,58,0.0,0.0,43,0.00,,---,0.00,VWS V14.01,2013-10-31 05:24:00,
2013-10-31 01:29:00,57.7,36.0,30.09,ENE,58,0.0,0.0,44,0.00,,---,0.00,VWS V14.01,2013-10-31 05:29:00,
2013-10-31 01:34:00,57.9,36.2,30.09,ENE,58,0.0,0.0,44,0.00,,---,0.00,VWS V14.01,2013-10-31 05:34:00,
2013-10-31 01:39:00,57.9,36.2,30.09,ENE,58,0.0,0.0,44,0.00,,---,0.00,VWS V14.01,2013-10-31 05:39:00,
2013-10-31 01:44:00,58.1,36.3,30.09,ENE,58,0.0,0.0,44,0.00,,---,0.00,VWS V14.01,2013-10-31 05:44:00,
2013-10-31 01:49:00,58.1,36.3,30.09,ENE,58,0.0,0.0,44,0.00,,---,0.00,VWS V14.01,2013-10-31 05:49:00,
2013-10-31 01:54:00,57.9,36.2,30.09,ENE,58,0.0,0.0,44,0.00,,---,0.00,VWS V14.01,2013-10-31 05:54:00,
2013-10-31 01:59:00,57.7,36.0,30.09,ENE,58,0.0,0.0,44,0.00,,---,0.00,VWS V14.01,2013-10-31 05:59:00,
2013-10-31 02:04:00,57.9,36.7,30.09,ENE,58,0.0,0.0,45,0.00,,---,0.00,VWS V14.01,2013-10-31 06:04:00,
2013-10-31 02:09:00,57.9,36.7,30.09,ENE,58,0.0,0.0,45,0.00,,---,0.00,VWS V14.01,2013-10-31 06:09:00,
2013-10-31 02:14:00,58.1,36.9,30.09,ENE,58,0.0,0.0,45,0.00,,---,0.00,VWS V14.01,2013-10-31 06:14:00,
2013-10-31 02:20:00,58.3,37.0,30.09,ENE,58,0.0,0.0,45,0.00,,---,0.00,VWS V14.01,2013-10-31 06:20:00,
2013-10-31 02:25:00,58.5,37.2,30.09,ENE,58,0.0,0.0,45,0.00,,---,0.00,VWS V14.01,2013-10-31 06:25:00,
2013-10-31 02:30:00,58.5,37.2,30.09,ENE,58,0.0,0.0,45,0.00,,---,0.00,VWS V14.01,2013-10-31 06:30:00,
2013-10-31 02:35:00,58.3,37.0,30.09,ENE,58,0.0,0.0,45,0.00,,---,0.00,VWS V14.01,2013-10-31 06:35:00,
2013-10-31 02:40:00,58.5,37.2,30.06,ENE,58,0.0,0.0,45,0.00,,---,0.00,VWS V14.01,2013-10-31 06:40:00,
2013-10-31 02:45:00,58.3,37.0,30.06,ENE,58,0.0,0.0,45,0.00,,---,0.00,VWS V14.01,2013-10-31 06:45:00,
2013-10-31 02:50:00,58.1,36.9,30.06,ENE,58,0.0,0.0,45,0.00,,---,0.00,VWS V14.01,2013-10-31 06:50:00,
2013-10-31 02:55:00,57.9,36.7,30.09,ENE,58,0.0,0.0,45,0.00,,---,0.00,VWS V14.01,2013-10-31 06:55:00,
2013-10-31 03:00:00,57.9,36.7,30.09,ENE,58,0.0,0.0,45,0.00,,---,0.00,VWS V14.01,2013-10-31 07:00:00,
2013-10-31 03:05:00,57.9,36.7,30.09,ENE,58,0.0,0.0,45,0.00,,---,0.00,VWS V14.01,2013-10-31 07:05:00,
2013-10-31 03:10:00,57.9,37.3,30.06,ENE,58,0.0,0.0,46,0.00,,---,0.00,VWS V14.01,2013-10-31 07:10:00,
2013-10-31 03:15:00,58.1,37.5,30.06,ENE,58,0.0,0.0,46,0.00,,---,0.00,VWS V14.01,2013-10-31 07:15:00,
2013-10-31 03:21:00,58.1,37.5,30.06,ENE,58,0.0,0.0,46,0.00,,---,0.00,VWS V14.01,2013-10-31 07:21:00,
2013-10-31 03:26:00,58.1,37.5,30.06,ENE,58,0.0,0.0,46,0.00,,---,0.00,VWS V14.01,2013-10-31 07:26:00,
2013-10-31 03:31:00,58.1,37.5,30.06,ENE,58,0.0,0.0,46,0.00,,---,0.00,VWS V14.01,2013-10-31 07:31:00,
2013-10-31 03:36:00,58.1,37.5,30.06,ENE,58,0.0,0.0,46,0.00,,---,0.00,VWS V14.01,2013-10-31 07:36:00,
2013-10-31 03:41:00,57.9,37.3,30.06,ENE,58,0.0,0.0,46,0.00,,---,0.00,VWS V14.01,2013-10-31 07:41:00,
2013-10-31 03:46:00,57.9,37.3,30.06,ENE,58,0.0,0.0,46,0.00,,---,0.00,VWS V14.01,2013-10-31 07:46:00,
2013-10-31 03:51:00,57.9,37.3,30.06,ENE,58,0.0,0.0,46,0.00,,---,0.00,VWS V14.01,2013-10-31 07:51:00,
2013-10-31 03:56:00,57.7,37.1,30.06,ENE,58,0.0,0.0,46,0.00,,---,0.00,VWS V14.01,2013-10-31 07:56:00,
2013-10-31 04:01:00,57.7,37.1,30.06,ENE,58,0.0,0.0,46,0.00,,---,0.00,VWS V14.01,2013-10-31 08:01:00,
2013-10-31 04:06:00,57.6,37.0,30.06,ENE,58,0.0,0.0,46,0.00,,---,0.00,VWS V14.01,2013-10-31 08:06:00,
2013-10-31 04:12:00,57.6,37.0,30.06,ENE,58,0.0,0.0,46,0.00,,---,0.00,VWS V14.01,2013-10-31 08:12:00,
2013-10-31 04:17:00,57.6,37.0,30.06,ENE,58,0.0,0.0,46,0.00,,---,0.00,VWS V14.01,2013-10-31 08:17:00,
2013-10-31 04:22:00,57.6,37.5,30.06,ENE,58,0.0,0.0,47,0.00,,---,0.00,VWS V14.01,2013-10-31 08:22:00,
2013-10-31 04:27:00,57.6,37.5,30.06,ENE,58,0.0,0.0,47,0.00,,---,0.00,VWS V14.01,2013-10-31 08:27:00,
2013-10-31 04:32:00,57.7,37.7,30.06,ENE,58,0.0,0.0,47,0.00,,---,0.00,VWS V14.01,2013-10-31 08:32:00,
2013-10-31 04:37:00,57.7,37.7,30.03,ENE,58,0.0,0.0,47,0.00,,---,0.00,VWS V14.01,2013-10-31 08:37:00,
2013-10-31 04:42:00,57.9,37.8,30.03,ENE,58,0.0,0.0,47,0.00,,---,0.00,VWS V14.01,2013-10-31 08:42:00,
2013-10-31 04:47:00,57.7,37.7,30.03,ENE,58,0.0,0.0,47,0.00,,---,0.00,VWS V14.01,2013-10-31 08:47:00,
2013-10-31 04:52:00,57.6,37.5,30.03,ENE,58,0.0,0.0,47,0.00,,---,0.00,VWS V14.01,2013-10-31 08:52:00,
2013-10-31 04:58:00,57.4,37.3,30.03,ENE,58,0.0,0.0,47,0.00,,---,0.00,VWS V14.01,2013-10-31 08:58:00,
2013-10-31 05:03:00,57.2,37.2,30.03,ENE,58,0.0,0.0,47,0.00,,---,0.00,VWS V14.01,2013-10-31 09:03:00,
2013-10-31 05:08:00,57.2,37.2,30.03,ENE,58,0.0,0.0,47,0.00,,---,0.00,VWS V14.01,2013-10-31 09:08:00,
2013-10-31 05:13:00,57.0,37.0,30.03,ENE,58,0.0,0.0,47,0.00,,---,0.00,VWS V14.01,2013-10-31 09:13:00,
2013-10-31 05:18:00,56.8,36.8,30.03,ENE,58,0.0,0.0,47,0.00,,---,0.00,VWS V14.01,2013-10-31 09:18:00,
2013-10-31 05:23:00,56.7,36.7,30.06,ENE,58,0.0,0.0,47,0.00,,---,0.00,VWS V14.01,2013-10-31 09:23:00,
2013-10-31 05:28:00,56.8,37.4,30.06,ENE,58,0.0,0.0,48,0.00,,---,0.00,VWS V14.01,2013-10-31 09:28:00,
2013-10-31 05:33:00,56.8,37.4,30.06,ENE,58,0.0,0.0,48,0.00,,---,0.00,VWS V14.01,2013-10-31 09:33:00,
2013-10-31 05:38:00,56.8,37.4,30.06,ENE,58,0.0,0.0,48,0.00,,---,0.00,VWS V14.01,2013-10-31 09:38:00,
2013-10-31 05:43:00,56.8,37.4,30.06,ENE,58,0.0,0.0,48,0.00,,---,0.00,VWS V14.01,2013-10-31 09:43:00,
2013-10-31 05:49:00,56.8,37.4,30.06,ENE,58,0.0,0.0,48,0.00,,---,0.00,VWS V14.01,2013-10-31 09:49:00,
2013-10-31 05:54:00,57.2,37.7,30.06,ENE,58,0.0,0.0,48,0.00,,---,0.00,VWS V14.01,2013-10-31 09:54:00,
2013-10-31 05:59:00,57.2,37.7,30.06,ENE,58,0.0,0.0,48,0.00,,---,0.00,VWS V14.01,2013-10-31 09:59:00,
2013-10-31 06:04:00,57.2,37.7,30.06,ENE,58,0.0,0.0,48,0.00,,---,0.00,VWS V14.01,2013-10-31 10:04:00,
2013-10-31 06:09:00,57.4,37.9,30.06,ENE,58,0.0,0.0,48,0.00,,---,0.00,VWS V14.01,2013-10-31 10:09:00,
2013-10-31 06:14:00,57.6,38.0,30.06,ENE,58,0.0,0.0,48,0.00,,---,0.00,VWS V14.01,2013-10-31 10:14:00,
2013-10-31 06:19:00,57.4,37.9,30.06,ENE,58,0.0,0.0,48,0.00,,---,0.00,VWS V14.01,2013-10-31 10:19:00,
2013-10-31 06:24:00,57.4,37.9,30.06,ENE,58,0.0,0.0,48,0.00,,---,0.00,VWS V14.01,2013-10-31 10:24:00,
2013-10-31 06:29:00,57.6,38.0,30.06,ENE,58,0.0,0.0,48,0.00,,---,0.00,VWS V14.01,2013-10-31 10:29:00,
2013-10-31 06:34:00,57.7,38.7,30.06,ENE,58,0.0,0.0,49,0.00,,---,0.00,VWS V14.01,2013-10-31 10:34:00,
2013-10-31 06:39:00,58.1,39.1,30.03,ENE,58,0.0,0.0,49,0.00,,---,0.00,VWS V14.01,2013-10-31 10:39:00,
2013-10-31 06:44:00,58.1,39.1,30.03,ENE,58,0.0,0.0,49,0.00,,---,0.00,VWS V14.01,2013-10-31 10:44:00,
2013-10-31 06:49:00,58.1,38.5,30.03,ENE,58,0.0,0.0,48,0.00,,---,0.00,VWS V14.01,2013-10-31 10:49:00,
2013-10-31 06:54:00,58.1,38.5,30.03,ENE,58,0.0,0.0,48,0.00,,---,0.00,VWS V14.01,2013-10-31 10:54:00,
2013-10-31 06:59:00,57.9,38.4,30.03,ENE,58,0.0,0.0,48,0.00,,---,0.00,VWS V14.01,2013-10-31 10:59:00,
2013-10-31 07:04:00,57.9,38.4,30.03,ENE,58,0.0,0.0,48,0.00,,---,0.00,VWS V14.01,2013-10-31 11:04:00,
2013-10-31 07:10:00,57.9,37.8,30.03,ENE,58,0.0,0.0,47,0.00,,---,0.00,VWS V14.01,2013-10-31 11:10:00,
2013-10-31 07:15:00,57.6,37.5,30.03,ENE,58,0.0,0.0,47,0.00,,---,0.00,VWS V14.01,2013-10-31 11:15:00,
2013-10-31 07:20:00,57.2,37.2,30.03,ENE,58,0.0,0.0,47,0.00,,---,0.00,VWS V14.01,2013-10-31 11:20:00,
2013-10-31 07:25:00,57.2,37.2,30.03,ENE,58,0.0,0.0,47,0.00,,---,0.00,VWS V14.01,2013-10-31 11:25:00,
2013-10-31 07:30:00,57.0,37.0,30.03,ENE,58,0.0,0.0,47,0.00,,---,0.00,VWS V14.01,2013-10-31 11:30:00,
2013-10-31 07:35:00,57.0,37.5,30.03,ENE,58,0.0,0.0,48,0.00,,---,0.00,VWS V14.01,2013-10-31 11:35:00,
2013-10-31 07:40:00,56.8,37.4,30.03,ENE,58,0.0,0.0,48,0.00,,---,0.00,VWS V14.01,2013-10-31 11:40:00,
2013-10-31 07:45:00,56.8,37.4,30.03,ENE,58,0.0,0.0,48,0.00,,---,0.00,VWS V14.01,2013-10-31 11:45:00,
2013-10-31 07:50:00,56.7,37.2,30.03,ENE,58,0.0,0.0,48,0.00,,---,0.00,VWS V14.01,2013-10-31 11:50:00,
2013-10-31 07:55:00,56.7,37.2,30.03,ENE,58,0.0,0.0,48,0.00,,---,0.00,VWS V14.01,2013-10-31 11:55:00,
2013-10-31 08:00:00,56.8,37.4,30.03,ENE,58,0.0,0.0,48,0.00,,---,0.00,VWS V14.01,2013-10-31 12:00:00,
2013-10-31 08:05:00,56.8,37.4,30.03,ENE,58,0.0,0.0,48,0.00,,---,0.00,VWS V14.01,2013-10-31 12:05:00,
2013-10-31 08:10:00,56.8,37.4,30.03,ENE,58,0.0,0.0,48,0.00,,---,0.00,VWS V14.01,2013-10-31 12:10:00,
2013-10-31 08:16:00,56.8,37.9,30.03,ENE,58,0.0,0.0,49,0.00,,---,0.00,VWS V14.01,2013-10-31 12:16:00,
2013-10-31 08:21:00,57.0,38.1,30.03,ENE,58,0.0,0.0,49,0.00,,---,0.00,VWS V14.01,2013-10-31 12:21:00,
2013-10-31 08:26:00,57.2,38.2,30.03,ENE,58,0.0,0.0,49,0.00,,---,0.00,VWS V14.01,2013-10-31 12:26:00,
2013-10-31 08:31:00,57.4,38.4,30.03,ENE,58,0.0,0.0,49,0.00,,---,0.00,VWS V14.01,2013-10-31 12:31:00,
2013-10-31 08:36:00,57.6,38.6,30.03,ENE,58,0.0,0.0,49,0.00,,---,0.00,VWS V14.01,2013-10-31 12:36:00,
2013-10-31 08:41:00,57.6,38.0,30.03,ENE,58,0.0,0.0,48,0.00,,---,0.00,VWS V14.01,2013-10-31 12:41:00,
2013-10-31 08:46:00,57.4,37.9,30.03,ENE,58,0.0,0.0,48,0.00,,---,0.00,VWS V14.01,2013-10-31 12:46:00,
2013-10-31 08:51:00,57.2,37.7,30.03,ENE,58,0.0,0.0,48,0.00,,---,0.00,VWS V14.01,2013-10-31 12:51:00,
2013-10-31 08:56:00,57.4,37.9,30.03,ENE,58,0.0,0.0,48,0.00,,---,0.00,VWS V14.01,2013-10-31 12:56:00,
2013-10-31 09:01:00,57.2,37.7,30.03,ENE,58,0.0,0.0,48,0.00,,---,0.00,VWS V14.01,2013-10-31 13:01:00,
2013-10-31 09:06:00,57.0,37.5,30.03,ENE,58,0.0,0.0,48,0.00,,---,0.00,VWS V14.01,2013-10-31 13:06:00,
2013-10-31 09:12:00,57.0,38.1,30.06,ENE,58,0.0,0.0,49,0.00,,---,0.00,VWS V14.01,2013-10-31 13:12:00,
2013-10-31 09:17:00,57.2,38.2,30.06,ENE,58,0.0,0.0,49,0.00,,---,0.00,VWS V14.01,2013-10-31 13:17:00,
2013-10-31 09:22:00,57.6,38.6,30.03,ENE,58,0.0,0.0,49,0.00,,---,0.00,VWS V14.01,2013-10-31 13:22:00,
2013-10-31 09:27:00,57.9,38.9,30.03,ENE,58,0.0,0.0,49,0.00,,---,0.00,VWS V14.01,2013-10-31 13:27:00,
2013-10-31 09:32:00,57.9,38.9,30.03,ENE,58,0.0,0.0,49,0.00,,---,0.00,VWS V14.01,2013-10-31 13:32:00,
2013-10-31 09:37:00,57.9,38.9,30.03,ENE,58,0.0,0.0,49,0.00,,---,0.00,VWS V14.01,2013-10-31 13:37:00,
2013-10-31 09:42:00,58.1,39.1,30.03,ENE,58,0.0,0.0,49,0.00,,---,0.00,VWS V14.01,2013-10-31 13:42:00,
2013-10-31 09:47:00,58.1,39.1,30.03,ENE,58,0.0,0.0,49,0.00,,---,0.00,VWS V14.01,2013-10-31 13:47:00,
2013-10-31 09:52:00,58.3,39.2,30.03,ENE,58,0.0,0.0,49,0.00,,---,0.00,VWS V14.01,2013-10-31 13:52:00,
2013-10-31 09:57:00,58.5,39.4,30.03,ENE,58,0.0,0.0,49,0.00,,---,0.00,VWS V14.01,2013-10-31 13:57:00,
2013-10-31 10:03:00,58.5,38.9,30.03,ENE,58,0.0,0.0,48,0.00,,---,0.00,VWS V14.01,2013-10-31 14:03:00,
2013-10-31 10:08:00,58.5,39.4,30.03,ENE,58,0.0,0.0,49,0.00,,---,0.00,VWS V14.01,2013-10-31 14:08:00,
2013-10-31 10:13:00,58.8,39.7,30.03,ENE,58,0.0,0.0,49,0.00,,---,0.00,VWS V14.01,2013-10-31 14:13:00,
2013-10-31 10:18:00,59.2,40.0,30.03,ENE,58,0.0,0.0,49,0.00,,---,0.00,VWS V14.01,2013-10-31 14:18:00,
2013-10-31 10:23:00,59.7,41.1,30.03,ENE,58,0.0,0.0,50,0.00,,---,0.00,VWS V14.01,2013-10-31 14:23:00,
2013-10-31 10:28:00,60.1,40.9,30.03,ENE,58,0.0,0.0,49,0.00,,---,0.00,VWS V14.01,2013-10-31 14:28:00,
2013-10-31 10:33:00,60.4,41.2,30.03,ENE,58,0.0,0.0,49,0.00,,---,0.00,VWS V14.01,2013-10-31 14:33:00,
2013-10-31 10:38:00,60.4,41.2,30.01,ENE,58,0.0,0.0,49,0.00,,---,0.00,VWS V14.01,2013-10-31 14:38:00,
2013-10-31 10:43:00,61.0,41.7,30.01,ENE,58,0.0,0.0,49,0.00,,---,0.00,VWS V14.01,2013-10-31 14:43:00,
2013-10-31 10:48:00,61.3,42.6,30.01,ENE,58,0.0,0.0,50,0.00,,---,0.00,VWS V14.01,2013-10-31 14:48:00,
2013-10-31 10:54:00,62.1,43.2,30.01,SW,222,0.0,0.0,50,0.00,,---,0.00,VWS V14.01,2013-10-31 14:54:00,
2013-10-31 10:59:00,62.4,43.5,30.01,SW,222,0.0,0.0,50,0.00,,---,0.00,VWS V14.01,2013-10-31 14:59:00,
2013-10-31 11:04:00,62.6,43.2,30.01,SW,219,0.0,0.0,49,0.00,,---,0.00,VWS V14.01,2013-10-31 15:04:00,
2013-10-31 11:09:00,62.8,43.4,30.01,SW,219,0.0,0.0,49,0.00,,---,0.00,VWS V14.01,2013-10-31 15:09:00,
2013-10-31 11:14:00,63.1,43.7,30.01,SW,219,0.0,0.0,49,0.00,,---,0.00,VWS V14.01,2013-10-31 15:14:00,
2013-10-31 11:19:00,63.5,44.0,30.01,SW,219,0.0,0.0,49,0.00,,---,0.00,VWS V14.01,2013-10-31 15:19:00,
2013-10-31 11:24:00,63.9,44.3,30.01,SW,219,0.0,0.0,49,0.00,,---,0.00,VWS V14.01,2013-10-31 15:24:00,
2013-10-31 11:29:00,63.9,43.3,30.01,SW,219,0.0,0.0,47,0.00,,---,0.00,VWS V14.01,2013-10-31 15:29:00,
2013-10-31 11:34:00,63.9,42.1,30.01,SW,233,0.0,0.0,45,0.00,,---,0.00,VWS V14.01,2013-10-31 15:34:00,
2013-10-31 11:39:00,63.9,41.5,30.01,WSW,246,3.6,3.6,44,0.00,,---,0.00,VWS V14.01,2013-10-31 15:39:00,
2013-10-31 11:44:00,63.9,39.7,30.01,SW,216,0.0,0.0,41,0.00,,---,0.00,VWS V14.01,2013-10-31 15:44:00,
2013-10-31 11:49:00,64.0,38.6,30.01,SW,215,2.7,2.7,39,0.00,,---,0.00,VWS V14.01,2013-10-31 15:49:00,
2013-10-31 11:55:00,63.5,34.7,30.01,SSW,202,4.9,5.8,34,0.00,,---,0.00,VWS V14.01,2013-10-31 15:55:00,
2013-10-31 12:00:00,63.5,34.7,30.01,WSW,238,4.0,4.9,34,0.00,,---,0.00,VWS V14.01,2013-10-31 16:00:00,
2013-10-31 12:05:00,63.3,29.7,30.01,SSW,211,3.1,3.1,28,0.00,,---,0.00,VWS V14.01,2013-10-31 16:05:00,
2013-10-31 12:10:00,63.1,25.8,30.01,WSW,237,4.9,6.3,24,0.00,,---,0.00,VWS V14.01,2013-10-31 16:10:00,
2013-10-31 12:15:00,63.9,26.4,30.01,WSW,242,7.6,7.6,24,0.00,,---,0.00,VWS V14.01,2013-10-31 16:15:00,
2013-10-31 12:20:00,64.4,20.0,30.01,West,263,7.6,8.7,18,0.00,,---,0.00,VWS V14.01,2013-10-31 16:20:00,
2013-10-31 12:25:00,64.8,16.1,29.98,SSW,210,5.8,11.0,15,0.00,,---,0.00,VWS V14.01,2013-10-31 16:25:00,
2013-10-31 12:30:00,64.9,16.2,29.98,WSW,239,4.0,4.0,15,0.00,,---,0.00,VWS V14.01,2013-10-31 16:30:00,
2013-10-31 12:35:00,65.1,16.4,29.98,SW,236,8.7,8.7,15,0.00,,---,0.00,VWS V14.01,2013-10-31 16:35:00,
2013-10-31 12:40:00,64.9,16.2,29.98,SW,224,5.4,5.8,15,0.00,,---,0.00,VWS V14.01,2013-10-31 16:40:00,
2013-10-31 12:45:00,64.9,16.2,29.98,WSW,239,6.3,6.3,15,0.00,,---,0.00,VWS V14.01,2013-10-31 16:45:00,
2013-10-31 12:50:00,64.8,16.1,29.98,WSW,240,4.9,5.4,15,0.00,,---,0.00,VWS V14.01,2013-10-31 16:50:00,
2013-10-31 12:55:00,64.8,16.1,29.98,WSW,256,2.7,4.0,15,0.00,,---,0.00,VWS V14.01,2013-10-31 16:55:00,
2013-10-31 13:00:00,64.8,16.1,29.98,WSW,245,5.4,6.3,15,0.00,,---,0.00,VWS V14.01,2013-10-31 17:00:00,
2013-10-31 13:05:00,64.6,15.9,29.98,SSW,204,2.7,4.0,15,0.00,,---,0.00,VWS V14.01,2013-10-31 17:05:00,
2013-10-31 13:10:00,64.6,15.9,29.98,SSW,205,3.6,3.6,15,0.00,,---,0.00,VWS V14.01,2013-10-31 17:10:00,
2013-10-31 13:15:00,64.4,15.8,29.98,WSW,256,4.9,5.4,15,0.00,,---,0.00,VWS V14.01,2013-10-31 17:15:00,
2013-10-31 13:20:00,64.4,15.8,29.98,WSW,249,5.4,6.3,15,0.00,,---,0.00,VWS V14.01,2013-10-31 17:20:00,
2013-10-31 13:25:00,64.4,15.8,29.95,WSW,245,3.6,4.0,15,0.00,,---,0.00,VWS V14.01,2013-10-31 17:25:00,
2013-10-31 13:30:00,64.8,16.1,29.95,South,186,2.7,3.6,15,0.00,,---,0.00,VWS V14.01,2013-10-31 17:30:00,
2013-10-31 13:35:00,64.8,16.1,29.95,SW,230,3.6,4.0,15,0.00,,---,0.00,VWS V14.01,2013-10-31 17:35:00,
2013-10-31 13:40:00,64.9,16.2,29.95,WNW,282,3.6,4.0,15,0.00,,---,0.00,VWS V14.01,2013-10-31 17:40:00,
2013-10-31 13:45:00,65.1,16.4,29.95,NW,311,4.0,4.0,15,0.00,,---,0.00,VWS V14.01,2013-10-31 17:45:00,
2013-10-31 13:50:00,65.1,16.4,29.95,WSW,246,2.7,4.0,15,0.00,,---,0.00,VWS V14.01,2013-10-31 17:50:00,
2013-10-31 13:55:00,65.1,16.4,29.95,SSW,201,3.1,5.4,15,0.00,,---,0.00,VWS V14.01,2013-10-31 17:55:00,
2013-10-31 14:00:00,65.1,16.4,29.95,West,260,5.4,7.6,15,0.00,,---,0.00,VWS V14.01,2013-10-31 18:00:00,
2013-10-31 14:05:00,64.9,16.2,29.95,WSW,237,5.8,8.1,15,0.00,,---,0.00,VWS V14.01,2013-10-31 18:05:00,
2013-10-31 14:10:00,64.9,16.2,29.92,WSW,258,4.0,7.6,15,0.00,,---,0.00,VWS V14.01,2013-10-31 18:10:00,
2013-10-31 14:15:00,64.8,16.1,29.92,WSW,248,3.1,3.1,15,0.00,,---,0.00,VWS V14.01,2013-10-31 18:15:00,
2013-10-31 14:20:00,64.8,16.1,29.92,WSW,241,5.4,5.4,15,0.00,,---,0.00,VWS V14.01,2013-10-31 18:20:00,
2013-10-31 14:25:00,64.8,16.1,29.92,SW,230,2.2,4.0,15,0.00,,---,0.00,VWS V14.01,2013-10-31 18:25:00,
2013-10-31 14:30:00,64.8,16.1,29.92,SW,220,2.7,6.3,15,0.00,,---,0.00,VWS V14.01,2013-10-31 18:30:00,
2013-10-31 14:35:00,64.8,16.1,29.92,WSW,258,5.8,8.3,15,0.00,,---,0.00,VWS V14.01,2013-10-31 18:35:00,
2013-10-31 14:40:00,64.8,16.1,29.92,West,268,7.6,7.6,15,0.00,,---,0.00,VWS V14.01,2013-10-31 18:40:00,
2013-10-31 14:45:00,64.6,15.9,29.92,SW,236,4.0,5.8,15,0.00,,---,0.00,VWS V14.01,2013-10-31 18:45:00,
2013-10-31 14:50:00,64.6,15.9,29.92,WNW,288,4.9,8.1,15,0.00,,---,0.00,VWS V14.01,2013-10-31 18:50:00,
2013-10-31 14:55:00,64.8,16.1,29.92,SW,233,3.6,5.4,15,0.00,,---,0.00,VWS V14.01,2013-10-31 18:55:00,
2013-10-31 15:00:00,64.9,16.2,29.92,NW,311,4.0,5.4,15,0.00,,---,0.00,VWS V14.01,2013-10-31 19:00:00,
2013-10-31 15:05:00,64.9,16.2,29.92,SW,232,5.8,6.3,15,0.00,,---,0.00,VWS V14.01,2013-10-31 19:05:00,
2013-10-31 15:10:00,64.8,16.1,29.92,SW,227,5.8,7.6,15,0.00,,---,0.00,VWS V14.01,2013-10-31 19:10:00,
2013-10-31 15:15:00,64.8,16.1,29.92,SW,226,2.7,4.9,15,0.00,,---,0.00,VWS V14.01,2013-10-31 19:15:00,
2013-10-31 15:20:00,64.8,16.1,29.92,North,3,5.8,5.8,15,0.00,,---,0.00,VWS V14.01,2013-10-31 19:20:00,
2013-10-31 15:25:00,64.6,15.9,29.92,SW,214,7.6,7.6,15,0.00,,---,0.00,VWS V14.01,2013-10-31 19:25:00,
2013-10-31 15:30:00,64.4,15.8,29.92,WSW,249,2.2,3.1,15,0.00,,---,0.00,VWS V14.01,2013-10-31 19:30:00,
2013-10-31 15:35:00,64.4,15.8,29.92,SW,232,2.7,3.6,15,0.00,,---,0.00,VWS V14.01,2013-10-31 19:35:00,
2013-10-31 15:40:00,64.4,15.8,29.89,SW,230,3.6,5.8,15,0.00,,---,0.00,VWS V14.01,2013-10-31 19:40:00,
2013-10-31 15:45:00,64.2,17.1,29.89,WSW,243,5.4,5.4,16,0.00,,---,0.00,VWS V14.01,2013-10-31 19:45:00,
2013-10-31 15:50:00,64.2,17.1,29.89,SW,229,6.3,8.3,16,0.00,,---,0.00,VWS V14.01,2013-10-31 19:50:00,
2013-10-31 15:54:00,64.2,17.1,29.89,West,276,6.3,6.3,16,0.00,,---,0.00,VWS V14.01,2013-10-31 19:54:00,
2013-10-31 15:59:00,64.2,17.1,29.89,West,262,3.6,5.8,16,0.00,,---,0.00,VWS V14.01,2013-10-31 19:59:00,
2013-10-31 16:04:00,64.2,17.1,29.89,SW,232,6.3,6.3,16,0.00,,---,0.00,VWS V14.01,2013-10-31 20:04:00,
2013-10-31 16:09:00,64.2,17.1,29.89,WSW,247,3.6,5.4,16,0.00,,---,0.00,VWS V14.01,2013-10-31 20:09:00,
2013-10-31 16:14:00,64.2,17.1,29.89,WSW,247,4.9,6.3,16,0.00,,---,0.00,VWS V14.01,2013-10-31 20:14:00,
2013-10-31 16:19:00,63.9,16.8,29.89,WSW,243,8.1,8.1,16,0.00,,---,0.00,VWS V14.01,2013-10-31 20:19:00,
2013-10-31 16:24:00,63.5,16.5,29.92,SW,219,4.0,4.0,16,0.00,,---,0.00,VWS V14.01,2013-10-31 20:24:00,
2013-10-31 16:29:00,63.1,16.2,29.92,West,265,3.6,4.0,16,0.00,,---,0.00,VWS V14.01,2013-10-31 20:29:00,
2013-10-31 16:34:00,62.6,15.8,29.92,SW,231,6.3,6.3,16,0.00,,---,0.00,VWS V14.01,2013-10-31 20:34:00,
2013-10-31 16:39:00,62.1,15.4,29.89,SW,229,3.1,3.1,16,0.00,,---,0.00,VWS V14.01,2013-10-31 20:39:00,
2013-10-31 16:44:00,61.5,14.9,29.89,ESE,119,2.7,4.0,16,0.00,,---,0.00,VWS V14.01,2013-10-31 20:44:00,
2013-10-31 16:49:00,61.2,14.6,29.89,West,274,3.6,6.7,16,0.00,,---,0.00,VWS V14.01,2013-10-31 20:49:00,
2013-10-31 16:54:00,61.0,14.5,29.89,WSW,240,5.4,5.8,16,0.00,,---,0.00,VWS V14.01,2013-10-31 20:54:00,
2013-10-31 16:59:00,60.6,15.6,29.89,West,268,3.1,3.6,17,0.00,,---,0.00,VWS V14.01,2013-10-31 20:59:00,
2013-10-31 17:04:00,60.4,18.0,29.89,West,280,4.9,8.3,19,0.00,,---,0.00,VWS V14.01,2013-10-31 21:04:00,
2013-10-31 17:09:00,60.3,17.9,29.89,West,268,2.7,2.7,19,0.00,,---,0.00,VWS V14.01,2013-10-31 21:09:00,
2013-10-31 17:14:00,60.1,17.7,29.89,WSW,243,4.0,8.1,19,0.00,,---,0.00,VWS V14.01,2013-10-31 21:14:00,
2013-10-31 17:19:00,59.9,17.6,29.89,SW,235,2.2,5.8,19,0.00,,---,0.00,VWS V14.01,2013-10-31 21:19:00,
2013-10-31 17:24:00,59.9,17.6,29.86,West,263,5.4,5.4,19,0.00,,---,0.00,VWS V14.01,2013-10-31 21:24:00,
2013-10-31 17:29:00,59.7,20.8,29.86,SW,221,3.1,3.1,22,0.00,,---,0.00,VWS V14.01,2013-10-31 21:29:00,
2013-10-31 17:34:00,59.7,20.8,29.86,WSW,237,5.8,6.7,22,0.00,,---,0.00,VWS V14.01,2013-10-31 21:34:00,
2013-10-31 17:39:00,59.7,20.8,29.89,SW,229,4.5,4.5,22,0.00,,---,0.00,VWS V14.01,2013-10-31 21:39:00,
2013-10-31 17:44:00,59.7,17.4,29.89,WSW,245,6.3,8.3,19,0.00,,---,0.00,VWS V14.01,2013-10-31 21:44:00,
2013-10-31 17:49:00,59.7,17.4,29.89,WSW,258,7.6,7.6,19,0.00,,---,0.00,VWS V14.01,2013-10-31 21:49:00,
2013-10-31 17:55:00,60.1,17.7,29.89,SSW,193,5.8,5.8,19,0.00,,---,0.00,VWS V14.01,2013-10-31 21:55:00,
2013-10-31 18:00:00,60.1,17.7,29.89,SSE,166,8.1,8.3,19,0.00,,---,0.00,VWS V14.01,2013-10-31 22:00:00,
2013-10-31 18:05:00,60.4,15.4,29.89,SW,214,5.8,8.7,17,0.00,,---,0.00,VWS V14.01,2013-10-31 22:05:00,
2013-10-31 18:10:00,60.6,15.6,29.89,WSW,239,3.1,3.6,17,0.00,,---,0.00,VWS V14.01,2013-10-31 22:10:00,
2013-10-31 18:15:00,60.8,14.4,29.89,NW,318,3.6,3.6,16,0.00,,---,0.00,VWS V14.01,2013-10-31 22:15:00,
2013-10-31 18:20:00,60.6,15.6,29.89,WSW,239,2.7,4.0,17,0.00,,---,0.00,VWS V14.01,2013-10-31 22:20:00,
2013-10-31 18:25:00,60.6,15.6,29.86,WNW,295,8.3,8.3,17,0.00,,---,0.00,VWS V14.01,2013-10-31 22:25:00,
2013-10-31 18:30:00,60.8,14.4,29.86,SW,232,0.0,2.7,16,0.00,,---,0.00,VWS V14.01,2013-10-31 22:30:00,
2013-10-31 18:35:00,60.8,14.4,29.86,West,281,5.4,8.3,16,0.00,,---,0.00,VWS V14.01,2013-10-31 22:35:00,
2013-10-31 18:40:00,61.0,14.5,29.86,SSE,168,5.8,5.8,16,0.00,,---,0.00,VWS V14.01,2013-10-31 22:40:00,
2013-10-31 18:46:00,60.8,14.4,29.86,SW,228,0.0,3.1,16,0.00,,---,0.00,VWS V14.01,2013-10-31 22:46:00,
2013-10-31 18:51:00,60.8,14.4,29.86,WSW,251,3.6,5.4,16,0.00,,---,0.00,VWS V14.01,2013-10-31 22:51:00,
2013-10-31 18:56:00,60.8,14.4,29.86,WSW,258,8.1,11.0,16,0.00,,---,0.00,VWS V14.01,2013-10-31 22:56:00,
2013-10-31 19:01:00,61.0,14.5,29.86,West,264,3.6,6.3,16,0.00,,---,0.00,VWS V14.01,2013-10-31 23:01:00,
2013-10-31 19:06:00,61.0,14.5,29.86,WNW,282,5.4,8.3,16,0.00,,---,0.00,VWS V14.01,2013-10-31 23:06:00,
2013-10-31 19:11:00,61.0,14.5,29.86,WSW,250,4.9,4.9,16,0.00,,---,0.00,VWS V14.01,2013-10-31 23:11:00,
2013-10-31 19:16:00,61.0,14.5,29.86,WNW,296,3.6,8.3,16,0.00,,---,0.00,VWS V14.01,2013-10-31 23:16:00,
2013-10-31 19:21:00,61.0,14.5,29.86,South,182,4.9,4.9,16,0.00,,---,0.00,VWS V14.01,2013-10-31 23:21:00,
2013-10-31 19:26:00,61.0,14.5,29.86,SW,227,2.7,3.1,16,0.00,,---,0.00,VWS V14.01,2013-10-31 23:26:00,
2013-10-31 19:31:00,60.8,14.4,29.86,SSW,207,3.1,3.6,16,0.00,,---,0.00,VWS V14.01,2013-10-31 23:31:00,
2013-10-31 19:36:00,60.8,14.4,29.86,West,271,6.3,6.3,16,0.00,,---,0.00,VWS V14.01,2013-10-31 23:36:00,
2013-10-31 19:41:00,61.0,14.5,29.86,SSW,210,3.6,3.6,16,0.00,,---,0.00,VWS V14.01,2013-10-31 23:41:00,
2013-10-31 19:46:00,60.8,14.4,29.86,SSE,151,3.1,4.0,16,0.00,,---,0.00,VWS V14.01,2013-10-31 23:46:00,
2013-10-31 19:51:00,61.0,14.5,29.86,SSE,160,4.0,4.0,16,0.00,,---,0.00,VWS V14.01,2013-10-31 23:51:00,
2013-10-31 19:57:00,61.0,14.5,29.86,West,277,4.9,4.9,16,0.00,,---,0.00,VWS V14.01,2013-10-31 23:57:00,
2013-10-31 20:02:00,61.0,14.5,29.86,WSW,240,7.6,7.6,16,0.00,,---,0.00,VWS V14.01,2013-11-01 00:02:00,
2013-10-31 20:07:00,61.0,14.5,29.86,WSW,252,4.0,4.0,16,0.00,,---,0.00,VWS V14.01,2013-11-01 00:07:00,
2013-10-31 20:12:00,60.8,18.3,29.86,WSW,251,6.3,6.3,19,0.00,,---,0.00,VWS V14.01,2013-11-01 00:12:00,
2013-10-31 20:17:00,60.8,18.3,29.86,North,0,4.0,5.8,19,0.00,,---,0.00,VWS V14.01,2013-11-01 00:17:00,
2013-10-31 20:22:00,60.8,18.3,29.83,West,271,2.7,4.9,19,0.00,,---,0.00,VWS V14.01,2013-11-01 00:22:00,
2013-10-31 20:27:00,61.0,18.5,29.83,WNW,286,8.1,8.1,19,0.00,,---,0.00,VWS V14.01,2013-11-01 00:27:00,
2013-10-31 20:32:00,61.2,14.6,29.83,SW,216,6.7,8.3,16,0.00,,---,0.00,VWS V14.01,2013-11-01 00:32:00,
2013-10-31 20:37:00,61.3,14.8,29.83,WNW,289,4.0,7.6,16,0.00,,---,0.00,VWS V14.01,2013-11-01 00:37:00,
2013-10-31 20:43:00,61.3,14.8,29.83,SSW,212,5.4,5.8,16,0.00,,---,0.00,VWS V14.01,2013-11-01 00:43:00,
2013-10-31 20:48:00,61.2,18.6,29.83,SW,224,8.1,8.1,19,0.00,,---,0.00,VWS V14.01,2013-11-01 00:48:00,
2013-10-31 20:53:00,61.2,14.6,29.83,WNW,285,3.1,8.7,16,0.00,,---,0.00,VWS V14.01,2013-11-01 00:53:00,
2013-10-31 20:58:00,61.3,18.8,29.83,West,277,4.9,4.9,19,0.00,,---,0.00,VWS V14.01,2013-11-01 00:58:00,
2013-10-31 21:03:00,61.3,18.8,29.83,West,275,6.3,8.1,19,0.00,,---,0.00,VWS V14.01,2013-11-01 01:03:00,
2013-10-31 21:08:00,61.3,18.8,29.83,West,265,4.9,4.9,19,0.00,,---,0.00,VWS V14.01,2013-11-01 01:08:00,
2013-10-31 21:13:00,61.5,18.9,29.83,ENE,76,2.2,4.9,19,0.00,,---,0.00,VWS V14.01,2013-11-01 01:13:00,
2013-10-31 21:18:00,61.7,15.1,29.83,WSW,251,8.1,8.1,16,0.00,,---,0.00,VWS V14.01,2013-11-01 01:18:00,
2013-10-31 21:23:00,61.7,15.1,29.83,West,279,4.0,13.2,16,0.00,,---,0.00,VWS V14.01,2013-11-01 01:23:00,
2013-10-31 21:28:00,61.9,15.2,29.83,West,268,8.3,8.3,16,0.00,,---,0.00,VWS V14.01,2013-11-01 01:28:00,
2013-10-31 21:34:00,61.9,15.2,29.83,North,4,4.0,5.8,16,0.00,,---,0.00,VWS V14.01,2013-11-01 01:34:00,
2013-10-31 21:39:00,61.9,15.2,29.80,NW,316,3.6,8.1,16,0.00,,---,0.00,VWS V14.01,2013-11-01 01:39:00,
2013-10-31 21:44:00,61.9,15.2,29.80,West,260,5.4,8.1,16,0.00,,---,0.00,VWS V14.01,2013-11-01 01:44:00,
2013-10-31 21:49:00,61.7,19.0,29.80,WSW,247,5.4,5.4,19,0.00,,---,0.00,VWS V14.01,2013-11-01 01:49:00,
2013-10-31 21:54:00,61.7,19.0,29.80,SSW,207,5.8,5.8,19,0.00,,---,0.00,VWS V14.01,2013-11-01 01:54:00,
2013-10-31 21:59:00,61.7,19.0,29.80,WSW,239,3.6,5.4,19,0.00,,---,0.00,VWS V14.01,2013-11-01 01:59:00,
2013-10-31 22:04:00,61.7,19.0,29.80,West,261,10.5,10.5,19,0.00,,---,0.00,VWS V14.01,2013-11-01 02:04:00,
2013-10-31 22:09:00,61.7,19.0,29.80,SW,229,4.0,4.0,19,0.00,,---,0.00,VWS V14.01,2013-11-01 02:09:00,
2013-10-31 22:15:00,61.7,19.0,29.80,WSW,251,5.8,5.8,19,0.00,,---,0.00,VWS V14.01,2013-11-01 02:15:00,
2013-10-31 22:20:00,61.7,19.0,29.80,South,175,5.4,5.4,19,0.00,,---,0.00,VWS V14.01,2013-11-01 02:20:00,
2013-10-31 22:25:00,61.7,19.0,29.77,SSW,206,5.8,5.8,19,0.00,,---,0.00,VWS V14.01,2013-11-01 02:25:00,
2013-10-31 22:30:00,61.7,19.0,29.77,SW,221,3.1,4.0,19,0.00,,---,0.00,VWS V14.01,2013-11-01 02:30:00,
2013-10-31 22:35:00,61.7,19.0,29.77,NE,41,4.9,8.1,19,0.00,,---,0.00,VWS V14.01,2013-11-01 02:35:00,
2013-10-31 22:40:00,61.9,19.2,29.77,SW,231,5.8,5.8,19,0.00,,---,0.00,VWS V14.01,2013-11-01 02:40:00,
2013-10-31 22:45:00,61.9,19.2,29.77,SSW,210,4.0,6.3,19,0.00,,---,0.00,VWS V14.01,2013-11-01 02:45:00,
2013-10-31 22:50:00,61.9,19.2,29.77,West,260,4.0,4.0,19,0.00,,---,0.00,VWS V14.01,2013-11-01 02:50:00,
2013-10-31 22:55:00,61.9,19.2,29.77,WNW,290,0.0,4.0,19,0.00,,---,0.00,VWS V14.01,2013-11-01 02:55:00,
2013-10-31 23:01:00,61.9,19.2,29.77,WSW,244,3.1,4.0,19,0.00,,---,0.00,VWS V14.01,2013-11-01 03:01:00,
2013-10-31 23:06:00,61.9,19.2,29.77,WNW,297,8.7,10.5,19,0.00,,---,0.00,VWS V14.01,2013-11-01 03:06:00,
2013-10-31 23:11:00,61.9,19.2,29.74,ENE,76,7.6,8.7,19,0.00,,---,0.00,VWS V14.01,2013-11-01 03:11:00,
2013-10-31 23:16:00,62.1,19.3,29.74,WNW,291,8.7,8.7,19,0.00,,---,0.00,VWS V14.01,2013-11-01 03:16:00,
2013-10-31 23:21:00,61.9,19.2,29.74,South,186,3.1,8.1,19,0.00,,---,0.00,VWS V14.01,2013-11-01 03:21:00,
2013-10-31 23:26:00,61.7,19.0,29.74,WNW,292,8.1,8.3,19,0.00,,---,0.00,VWS V14.01,2013-11-01 03:26:00,
2013-10-31 23:31:00,61.7,19.0,29.74,WSW,250,5.4,8.3,19,0.00,,---,0.00,VWS V14.01,2013-11-01 03:31:00,
2013-10-31 23:36:00,61.5,18.9,29.74,SW,224,4.0,7.6,19,0.00,,---,0.00,VWS V14.01,2013-11-01 03:36:00,
2013-10-31 23:41:00,61.5,18.9,29.71,WSW,252,4.0,4.0,19,0.00,,---,0.00,VWS V14.01,2013-11-01 03:41:00,
2013-10-31 23:46:00,61.7,19.0,29.71,West,273,4.0,8.1,19,0.00,,---,0.00,VWS V14.01,2013-11-01 03:46:00,
2013-10-31 23:51:00,61.9,19.2,29.71,SSW,200,4.0,8.1,19,0.00,,---,0.00,VWS V14.01,2013-11-01 03:51:00,
2013-10-31 23:56:00,61.9,21.5,29.71,West,262,8.1,8.1,21,0.00,,---,0.00,VWS V14.01,2013-11-01 03:56:00,